Inquirer Daily News

Weather

Get conditions and forecasts for any City, State, ZIP code or Country:  
Northeast Philadelphia, PA
on Thursday, February 7, 2013

Thursday
Previous Day Next Day
Daily Summary
 ActualAverage (KTTN)Record (KTTN)
Temperature
Mean Temperature °F 33°F  
Max Temperature 35°F 41°F 57°F (1904)
Min Temperature 23°F 25°F 1°F (1993)
Degree Days
Heating Degree Days 36 32  
Month to date heating degree days 230  
Since 1 July heating degree days 3176  
Cooling Degree Days 0 0  
Month to date cooling degree days 0  
Year to date cooling degree days 0  
Moisture
Dew Point 15°F   
Average Humidity 57    
Maximum Humidity 72    
Minimum Humidity 42    
Precipitation
Precipitation 0.00 in 0.06 in 1.17 in (1941)
Month to date precipitation 0.48  
Year to date precipitation 3.64  
Wind
Wind Speed 5 mph   
Max Wind Speed 13 mph   
Max Gust Speed mph   
Visibility 10 miles   
Events     

Key: T is trace of precipitation, MM is missing value
Source: NWS Daily Summary
Time(EST)TemperatureDew PointHumidity Pressure Visibility Wind DirectionWind SpeedGust SpeedPrecipitationEvents Conditions
12:54 AM 23.0°F 15.1°F 72% 30.39 in 10.0 miles Calm Calm - N/A   Clear
1:54 AM 23.0°F 14.0°F 68% 30.40 in 10.0 miles NE 4.6 mph - N/A   Clear
2:54 AM 23.0°F 14.0°F 68% 30.42 in 10.0 miles Calm Calm - N/A   Clear
3:54 AM 25.0°F 12.0°F 58% 30.43 in 10.0 miles NE 3.5 mph - N/A   Clear
4:54 AM 24.1°F 12.0°F 60% 30.44 in 10.0 miles ENE 3.5 mph - N/A   Clear
5:54 AM 24.1°F 12.9°F 62% 30.45 in 10.0 miles NNE 3.5 mph - N/A   Clear
6:54 AM 24.1°F 15.1°F 69% 30.48 in 10.0 miles NNE 5.8 mph - N/A   Clear
7:54 AM 26.1°F 12.0°F 55% 30.51 in 10.0 miles NNE 6.9 mph - N/A   Clear
8:54 AM 28.0°F 12.0°F 51% 30.51 in 10.0 miles NE 6.9 mph - N/A   Clear
9:54 AM 28.9°F 10.9°F 47% 30.51 in 10.0 miles ENE 4.6 mph - N/A   Clear
10:54 AM 30.9°F 10.9°F 43% 30.51 in 10.0 miles ESE 3.5 mph - N/A   Clear
11:54 AM 33.1°F 12.0°F 42% 30.50 in 10.0 miles East 5.8 mph - N/A   Clear
12:54 PM 33.1°F 14.0°F 46% 30.46 in 10.0 miles ESE 8.1 mph - N/A   Clear
1:54 PM 34.0°F 15.1°F 46% 30.44 in 10.0 miles East 6.9 mph - N/A   Clear
2:54 PM 35.1°F 16.0°F 46% 30.43 in 10.0 miles ESE 8.1 mph - N/A   Scattered Clouds
3:54 PM 34.0°F 19.9°F 56% 30.41 in 10.0 miles East 12.7 mph - N/A   Clear
4:54 PM 32.0°F 19.0°F 59% 30.40 in 10.0 miles ESE 12.7 mph - N/A   Mostly Cloudy
5:54 PM 30.9°F 18.0°F 59% 30.41 in 10.0 miles East 11.5 mph - N/A   Scattered Clouds
6:54 PM 30.0°F 17.1°F 59% 30.43 in 10.0 miles East 8.1 mph - N/A   Clear
7:54 PM 28.9°F 17.1°F 61% 30.41 in 10.0 miles NE 5.8 mph - N/A   Mostly Cloudy
8:54 PM 30.0°F 17.1°F 59% 30.39 in 10.0 miles NE 6.9 mph - N/A   Overcast
9:54 PM 30.9°F 18.0°F 59% 30.37 in 10.0 miles NE 5.8 mph - N/A   Overcast
10:54 PM 32.0°F 19.9°F 61% 30.32 in 10.0 miles NE 8.1 mph - N/A   Overcast
11:54 PM 34.0°F 23.0°F 64% 30.30 in 10.0 miles NE 9.2 mph - N/A   Overcast
Astronomy
Sunrise:07:02 AM (EST) Moon Rise:04:39 AM (EST)2/7
Sunset:05:26 PM (EST) Moon Set:02:48 PM (EST)2/7
Moon Phase
Feb. 07 Feb. 10 Feb. 17 Feb. 25 Mar. 04

Copyright © 2014 The Weather Underground, Inc.